Weather History for KSJS - August, 2014

Change the Weather History Date:

Sunday, August 31, 2014

  Actual Average Record
Temperature  
Mean Temperature 73 °F -  
Max Temperature 77 °F - - ()
Min Temperature 69 °F - - ()
Cooling Degree Days 8    
Growing Degree Days 23 (Base 50)    
Moisture  
Dew Point 70 °F    
Average Humidity 93    
Maximum Humidity 98    
Minimum Humidity 84    
Precipitation  
Precipitation 0.00 in - - ()
Sea Level Pressure  
Sea Level Pressure 30.11 in    
Wind  
Wind Speed 6 mph (SSW)    
Max Wind Speed 13 mph    
Max Gust Speed 26 mph    
Visibility 9 miles    
Events Fog , Rain    
Averages and records for this station are not official NWS values.
T = Trace of Precipitation, MM = Missing Value Source: NWS Daily Summary

Daily Weather History Graph

Daily Weather History Graph

Search for Another Location

Airport or City:

Trip Planner

Search our weather history database for the weather conditions in past years. The results will help you decide how hot, cold, wet, or windy it might be!

Date:

Astronomy

Aug. 31, 2014 Rise Set
Actual Time 6:59 AM EDT 8:01 PM EDT
Civil Twilight 6:32 AM EDT 8:28 PM EDT
Nautical Twilight 6:00 AM EDT 8:59 PM EDT
Astronomical Twilight 5:27 AM EDT 9:33 PM EDT
Moon 12:38 PM EDT (8/31) 11:22 PM EDT (8/31)
Length of Visible Light 13h 55m
Length of Day
13h 01m
Waxing Crescent, 32% of the Moon is Illuminated
Aug 31
Waxing Crescent
Sep 2
First Quarter
Sep 8
Full
Sep 15
Last Quarter
Sep 24
New

Hourly Weather History & Observations

Time (EDT) Temp. Dew Point Humidity Pressure Visibility Wind Dir Wind Speed Gust Speed Precip Events Conditions
12:15 AM 75.0 °F 71.6 °F 89% 30.15 in 10.0 mi West 12.7 mph 26.5 mph N/A Rain Rain
12:35 AM 72.0 °F 68.9 °F 90% 30.15 in 10.0 mi West 9.2 mph 20.7 mph N/A Rain Rain
12:55 AM 70.7 °F 68.7 °F 93% 30.13 in 10.0 mi WSW 6.9 mph - N/A Rain Rain
1:15 AM 70.2 °F 68.7 °F 95% 30.14 in 10.0 mi WSW 3.5 mph - N/A Rain Light Rain
1:35 AM 70.2 °F 68.7 °F 95% 30.14 in 10.0 mi SW 4.6 mph - N/A   Light Drizzle
1:55 AM 70.3 °F 68.9 °F 95% 30.13 in 10.0 mi SSW 3.5 mph - N/A   Mostly Cloudy
2:15 AM 70.2 °F 68.5 °F 95% 30.14 in 10.0 mi WSW 3.5 mph - N/A Rain Rain
2:35 AM 69.6 °F 68.9 °F 98% 30.15 in 3.0 mi SSW 9.2 mph - N/A Rain Heavy Rain
2:55 AM 70.2 °F 69.1 °F 96% 30.13 in 10.0 mi South 5.8 mph - N/A Rain Light Rain
3:15 AM 70.3 °F 68.9 °F 95% 30.12 in 10.0 mi South 8.1 mph - N/A Rain Light Rain
3:35 AM 70.7 °F 68.9 °F 94% 30.11 in 10.0 mi SSE 8.1 mph - N/A   Light Drizzle
3:55 AM 70.3 °F 68.9 °F 95% 30.08 in 10.0 mi SE 8.1 mph - N/A   Light Drizzle
4:15 AM 70.7 °F 69.3 °F 95% 30.08 in 10.0 mi SSE 9.2 mph - N/A   Scattered Clouds
4:35 AM 70.7 °F 69.4 °F 96% 30.09 in 10.0 mi South 5.8 mph - N/A   Clear
4:55 AM 70.7 °F 69.8 °F 97% 30.10 in 10.0 mi South 8.1 mph - N/A   Clear
5:15 AM 70.5 °F 69.1 °F 95% 30.10 in 10.0 mi SSW 4.6 mph - N/A   Clear
5:30 AM 70.7 °F 69.1 °F 95% 30.10 in 10.0 mi South 5.8 mph - N/A   Clear
5:55 AM 70.7 °F 69.3 °F 95% 30.11 in 10.0 mi South 4.6 mph - N/A   Clear
6:35 AM 70.3 °F 69.3 °F 96% 30.12 in 10.0 mi South 4.6 mph - N/A   Clear
6:55 AM 70.2 °F 68.9 °F 96% 30.13 in 10.0 mi SSW 3.5 mph - N/A   Clear
7:15 AM 70.3 °F 68.9 °F 95% 30.13 in 10.0 mi Calm Calm - N/A   Clear
7:35 AM 70.5 °F 68.9 °F 95% 30.14 in 10.0 mi Calm Calm - N/A   Clear
7:55 AM 70.7 °F 68.9 °F 94% 30.14 in 10.0 mi South 3.5 mph - N/A   Clear
8:15 AM 70.7 °F 68.9 °F 94% 30.14 in 10.0 mi South 3.5 mph - N/A   Clear
8:35 AM 71.6 °F 68.9 °F 91% 30.14 in 10.0 mi South 4.6 mph - N/A   Clear
8:55 AM 72.0 °F 68.7 °F 89% 30.13 in 10.0 mi SSW 3.5 mph - N/A   Clear
9:15 AM 72.5 °F 68.7 °F 88% 30.13 in 10.0 mi SW 3.5 mph - N/A   Clear
9:35 AM 72.7 °F 69.1 °F 88% 30.13 in 10.0 mi SSW 3.5 mph - N/A   Clear
9:55 AM 73.0 °F 68.9 °F 87% 30.13 in 10.0 mi SSW 4.6 mph - N/A   Clear
10:15 AM 73.4 °F 68.9 °F 86% 30.14 in 10.0 mi SW 4.6 mph - N/A   Clear
10:55 AM 73.6 °F 69.3 °F 86% 30.14 in 10.0 mi SW 4.6 mph - N/A   Light Drizzle
11:15 AM 74.3 °F 69.6 °F 85% 30.14 in 10.0 mi SW 4.6 mph - N/A Rain Light Rain
11:35 AM 74.3 °F 69.8 °F 86% 30.15 in 10.0 mi SW 3.5 mph - N/A   Light Drizzle
12:15 PM 72.7 °F 70.7 °F 93% 30.16 in 7.0 mi West 5.8 mph - N/A Rain Rain
1:15 PM 73.0 °F 70.7 °F 92% 30.14 in 10.0 mi SSW 4.6 mph - N/A   Overcast
1:35 PM 72.5 °F 70.0 °F 92% 30.14 in 10.0 mi SW 4.6 mph - N/A Rain Light Rain
1:55 PM 73.4 °F 70.7 °F 91% 30.14 in 10.0 mi SSE 4.6 mph - N/A Rain Light Rain
2:15 PM 73.6 °F 70.9 °F 91% 30.13 in 10.0 mi South 3.5 mph - N/A   Overcast
2:30 PM 74.5 °F 71.4 °F 90% 30.13 in 10.0 mi South 4.6 mph - N/A   Overcast
2:55 PM 75.2 °F 71.4 °F 88% 30.12 in 10.0 mi South 5.8 mph - N/A   Overcast
3:15 PM 76.6 °F 72.0 °F 85% 30.11 in 10.0 mi SSE 6.9 mph - N/A   Overcast
3:35 PM 76.8 °F 71.8 °F 84% 30.10 in 10.0 mi South 5.8 mph - N/A   Overcast
3:55 PM 77.0 °F 71.8 °F 84% 30.08 in 10.0 mi SSE 5.8 mph - N/A   Mostly Cloudy
4:15 PM 77.2 °F 72.7 °F 86% 30.07 in 10.0 mi SE 5.8 mph - N/A   Light Drizzle
4:35 PM 75.9 °F 72.3 °F 89% 30.08 in 10.0 mi WNW 8.1 mph - N/A   Light Drizzle
4:55 PM 73.6 °F 72.7 °F 97% 30.06 in 2.0 mi NNE 10.4 mph - N/A Rain Rain
5:15 PM 73.4 °F 72.3 °F 96% 30.07 in 10.0 mi Calm Calm - N/A Rain Light Rain
5:35 PM 73.0 °F 71.8 °F 96% 30.08 in 5.0 mi Calm Calm - N/A Rain Light Rain
5:55 PM 72.7 °F 71.8 °F 97% 30.08 in 4.0 mi WSW 4.6 mph - N/A Rain Rain
6:15 PM 72.7 °F 72.1 °F 98% 30.08 in 5.0 mi SW 4.6 mph - N/A Rain Rain
6:35 PM 73.4 °F 71.2 °F 93% 30.09 in 10.0 mi WSW 5.8 mph - N/A Rain Light Rain
6:55 PM 72.5 °F 71.4 °F 96% 30.08 in 10.0 mi Calm Calm - N/A Rain Light Rain
7:15 PM 72.7 °F 71.6 °F 96% 30.08 in 10.0 mi SSW 3.5 mph - N/A Rain Light Rain
7:35 PM 72.5 °F 71.6 °F 97% 30.08 in 4.0 mi SSW 3.5 mph - N/A Rain Rain
7:55 PM 72.5 °F 72.0 °F 98% 30.07 in 10.0 mi South 4.6 mph - N/A Rain Light Rain
8:15 PM 73.0 °F 71.6 °F 95% 30.07 in 10.0 mi South 3.5 mph - N/A Rain Light Rain
8:35 PM 73.0 °F 71.8 °F 96% 30.07 in 10.0 mi South 3.5 mph - N/A   Drizzle
8:55 PM 72.9 °F 71.6 °F 96% 30.07 in 10.0 mi SSW 4.6 mph - N/A   Scattered Clouds
9:15 PM 72.9 °F 71.6 °F 96% 30.07 in 10.0 mi South 3.5 mph - N/A   Scattered Clouds
9:35 PM 73.0 °F 71.6 °F 95% 30.08 in 10.0 mi Calm Calm - N/A   Scattered Clouds
9:55 PM 71.4 °F 70.7 °F 98% 30.08 in 0.5 mi Calm Calm - N/A Fog Fog
10:15 PM 72.7 °F 71.1 °F 95% 30.07 in 10.0 mi South 3.5 mph - N/A   Scattered Clouds
10:35 PM 72.9 °F 70.9 °F 93% 30.07 in 10.0 mi South 5.8 mph - N/A   Clear
10:55 PM 73.4 °F 70.3 °F 90% 30.07 in 10.0 mi South 6.9 mph - N/A   Clear
11:15 PM 73.2 °F 69.8 °F 89% 30.07 in 10.0 mi SSW 5.8 mph - N/A   Clear
11:35 PM 72.5 °F 69.8 °F 91% 30.08 in 10.0 mi SW 3.5 mph - N/A   Scattered Clouds